Rexburg, ID

12:41 PM MDT on August 23, 2017 (GMT -0600)
Rexburg-Madison County

Weather History for KRXE - January, 2014

Change the Weather History Date:

Monday, January 13, 2014

  Actual Average Record
Temperature  
Mean Temperature 32 °F 20 °F  
Max Temperature 36 °F 29 °F 37 °F (2003)
Min Temperature 28 °F 12 °F -20 °F (2013)
Degree Days  
Heating Degree Days 33 45  
Month to date heating degree days 556 585  
Since 1 July heating degree days 3895 3967  
Cooling Degree Days 0 0  
Month to date cooling degree days 0 0  
Year to date cooling degree days 0 0  
Moisture  
Dew Point 28 °F    
Average Humidity 87    
Maximum Humidity 92    
Minimum Humidity 82    
Precipitation  
Precipitation 0.00 in 0.02 in 0.33 in (1980)
Month to date precipitation 0.46 0.39  
Year to date precipitation 0.46 0.39  
Sea Level Pressure  
Sea Level Pressure 30.27 in    
Wind  
Wind Speed 15 mph (SSW)    
Max Wind Speed 24 mph    
Max Gust Speed 34 mph    
Visibility 10 miles    
Events      
T = Trace of Precipitation, MM = Missing Value Source: NWS Daily Summary

Daily Weather History Graph

Daily Weather History Graph

Search for Another Location

Airport or City:

Trip Planner

Search our weather history database for the weather conditions in past years. The results will help you decide how hot, cold, wet, or windy it might be!

Date:

Astronomy

Jan. 13, 2014 Rise Set
Actual Time 7:59 AM MST 5:13 PM MST
Civil Twilight 7:27 AM MST 5:45 PM MST
Nautical Twilight 6:51 AM MST 6:21 PM MST
Astronomical Twilight 6:16 AM MST 6:55 PM MST
Moon 3:31 PM MST (1/13) 5:50 AM MST (1/13)
Length of Visible Light 10h 18m
Length of Day
9h 14m
Waxing Gibbous, 95% of the Moon is Illuminated
Jan 13
Waxing Gibbous
Jan 15
Full
Jan 23
Last Quarter
Jan 30
New
Feb 6
First Quarter

Hourly Weather History & Observations

Time (MST) Temp. Windchill Dew Point Humidity Pressure Visibility Wind Dir Wind Speed Gust Speed Precip Events Conditions
12:53 AM 28.9 °F 15.4 °F 25.0 °F 85% 30.21 in 10.0 mi SSW 21.9 mph 28.8 mph N/A   Overcast
1:53 AM 28.9 °F 15.4 °F 26.1 °F 89% 30.24 in 10.0 mi SW 21.9 mph 31.1 mph N/A   Overcast
2:28 AM 28.9 °F 17.7 °F 26.1 °F 89% 30.15 in 10.0 mi SW 15.0 mph - N/A   Overcast
2:53 AM 28.9 °F 18.2 °F 26.1 °F 89% 30.25 in 10.0 mi SW 13.8 mph - N/A   Overcast
3:46 AM 28.9 °F 20.4 °F 27.0 °F 92% 30.19 in 10.0 mi SSW 9.2 mph - N/A   Overcast
3:53 AM 28.9 °F 18.2 °F 27.0 °F 92% 30.26 in 10.0 mi SSW 13.8 mph - N/A   Overcast
4:53 AM 30.0 °F 20.5 °F 27.0 °F 88% 30.28 in 10.0 mi SW 11.5 mph - N/A   Overcast
5:53 AM 30.0 °F 21.1 °F 28.0 °F 92% 30.27 in 10.0 mi SW 10.4 mph - N/A   Overcast
6:36 AM 30.9 °F 20.7 °F 28.0 °F 89% 30.20 in 10.0 mi SSW 13.8 mph - N/A   Overcast
6:53 AM 30.9 °F 21.2 °F 28.0 °F 89% 30.28 in 10.0 mi SW 12.7 mph - N/A   Overcast
7:42 AM 30.9 °F 19.1 °F 28.0 °F 89% 30.18 in 10.0 mi SW 18.4 mph 25.3 mph N/A   Overcast
7:53 AM 30.9 °F 17.8 °F 28.0 °F 89% 30.27 in 10.0 mi SW 23.0 mph 33.4 mph N/A   Overcast
8:46 AM 30.0 °F 17.9 °F 28.0 °F 92% 30.19 in 10.0 mi SSW 18.4 mph 25.3 mph N/A   Overcast
8:53 AM 30.9 °F 18.7 °F 28.0 °F 89% 30.29 in 10.0 mi SSW 19.6 mph 24.2 mph N/A   Overcast
9:53 AM 30.9 °F 20.2 °F 28.0 °F 89% 30.32 in 10.0 mi SSW 15.0 mph 23.0 mph N/A   Overcast
10:11 AM 30.9 °F 20.7 °F 28.0 °F 89% 30.23 in 10.0 mi South 13.8 mph - N/A   Overcast
10:53 AM 32.0 °F 20.8 °F 28.9 °F 88% 30.30 in 10.0 mi SSW 17.3 mph 25.3 mph N/A   Overcast
11:32 AM 33.1 °F 22.6 °F 28.9 °F 85% 30.21 in 10.0 mi SSW 16.1 mph 25.3 mph N/A   Scattered Clouds
11:48 AM 33.8 °F 23.5 °F 28.4 °F 81% 30.21 in 10.0 mi SSW 16.1 mph - N/A   Mostly Cloudy
11:53 AM 33.1 °F 22.2 °F 28.9 °F 85% 30.28 in 10.0 mi SSW 17.3 mph - N/A   Mostly Cloudy
12:36 PM 34.0 °F 24.2 °F 30.0 °F 85% 30.19 in 10.0 mi SSW 15.0 mph 21.9 mph N/A   Overcast
12:53 PM 34.0 °F 23.4 °F 30.0 °F 85% 30.26 in 10.0 mi SW 17.3 mph 27.6 mph N/A   Overcast
1:53 PM 35.1 °F 24.5 °F 30.0 °F 82% 30.25 in 10.0 mi SSW 18.4 mph 27.6 mph N/A   Mostly Cloudy
2:05 PM 35.1 °F 25.2 °F 30.0 °F 82% 30.19 in 10.0 mi SSW 16.1 mph - N/A   Scattered Clouds
2:45 PM 35.1 °F 24.8 °F 30.0 °F 82% 30.20 in 10.0 mi SSW 17.3 mph 25.3 mph N/A   Mostly Cloudy
2:53 PM 35.1 °F 24.5 °F 30.0 °F 82% 30.27 in 10.0 mi SSW 18.4 mph 26.5 mph N/A   Mostly Cloudy
3:15 PM 35.1 °F 25.5 °F 30.9 °F 85% 30.20 in 10.0 mi SSW 15.0 mph - N/A   Scattered Clouds
3:53 PM 36.0 °F 27.1 °F 30.0 °F 79% 30.27 in 10.0 mi SSW 13.8 mph - N/A   Clear
4:53 PM 35.1 °F 25.9 °F 30.0 °F 82% 30.28 in 10.0 mi South 13.8 mph - N/A   Clear
5:53 PM 34.0 °F 25.0 °F 28.9 °F 82% 30.32 in 10.0 mi South 12.7 mph - N/A   Clear
6:53 PM 33.1 °F 23.9 °F 28.0 °F 82% 30.32 in 10.0 mi SSW 12.7 mph - N/A   Mostly Cloudy
7:53 PM 32.0 °F 23.6 °F 28.0 °F 85% 30.35 in 10.0 mi South 10.4 mph - N/A   Clear
8:53 PM 30.9 °F 19.4 °F 27.0 °F 85% 30.38 in 10.0 mi South 17.3 mph 25.3 mph N/A   Clear
9:53 PM 30.0 °F 21.1 °F 26.1 °F 85% 30.41 in 10.0 mi South 10.4 mph - N/A   Clear
10:53 PM 28.9 °F 19.2 °F 26.1 °F 89% 30.42 in 10.0 mi SSW 11.5 mph - N/A   Clear
11:53 PM 30.0 °F 18.7 °F 25.0 °F 82% 30.42 in 10.0 mi SW 16.1 mph - N/A   Clear